[[{"header":{"parameterUnit":"m.s-1","parameterCategory":1,"la1":30.2991,"la2":30.254,"lo1":-89.0895,"lo2":-89.0444,"dy":0.0017,"dx":0.0017,"nx":28,"ny":28,"refTime":"2023-09-15T21:00:00:Z","depth":0,"parameterNumber":2,"parameterNumberName":"U-component_of_WINDS"},"data":[0,0,0,0,0,0,0,0,0,0,0,0,0,0,0,0,0,0,0,0,0,0,0,0,0,0,0,0,0,0,0,0,0,0,0,0,0,0,0,0,0,0,0,0,0,0,0,0,0,0,0,0,0,0,0,0,0,0,-0.4242,-0.4241,0,-0.4138,-0.4137,-0.4136,-0.4077,-0.4077,-0.4077,-0.4077,-0.3969,-0.3967,-0.3964,0,0,0,0,0,0,0,0,0,0,0,0,0,-0.439,-0.4387,-0.4242,-0.4241,-0.424,-0.4138,-0.4137,-0.4136,-0.4077,-0.4077,-0.4077,-0.4077,-0.397,-0.3967,-0.3964,0,0,0,0,0,0,0,0,0,0,0,0,0,-0.431,-0.4387,-0.4243,-0.4199,-0.4194,-0.4139,-0.4137,-0.4135,-0.4077,-0.4077,-0.4077,-0.4077,-0.3971,-0.3967,-0.3963,-0.3944,0,0,-0.3951,-0.3949,0,0,0,0,0,0,0,0,-0.4314,-0.4304,-0.4206,-0.4201,-0.4196,-0.4121,-0.415,-0.4071,-0.4077,-0.4122,-0.4077,-0.4076,-0.402,-0.4012,-0.3993,-0.3939,-0.3934,-0.3951,-0.3948,-0.3946,-0.3945,0,0,0,0,0,0,0,-0.432,-0.4309,-0.4201,-0.4205,-0.4199,-0.4184,-0.4172,-0.4134,-0.4073,-0.4118,-0.4113,-0.4102,-0.4017,-0.3997,-0.399,-0.3933,-0.3951,-0.3947,-0.3945,-0.3943,-0.3858,-0.3858,0,0,0,0,0,0,-0.4333,-0.4314,-0.4204,-0.4198,-0.4256,-0.4181,-0.4168,-0.4145,-0.4074,-0.4063,-0.4102,-0.4099,-0.4004,-0.3995,-0.3986,-0.3958,-0.3946,-0.3943,-0.394,-0.3858,-0.3858,-0.3858,0,0,0,0,0,0,-0.4336,-0.4324,-0.4209,-0.4255,-0.4239,-0.4179,-0.4153,-0.4143,-0.4123,-0.4062,-0.4051,-0.4093,-0.4003,-0.3991,-0.3955,-0.3954,-0.3941,-0.3937,-0.3857,-0.3858,-0.3858,-0.3904,0,0,0,0,0,0,-0.4341,-0.4325,-0.4318,-0.4255,-0.4237,-0.418,-0.4153,-0.4141,-0.4116,-0.4112,-0.405,-0.404,-0.4002,-0.3961,-0.3951,-0.3948,-0.3934,-0.3857,-0.3857,-0.3858,-0.3902,-0.3905,-0.3908,0,0,0,0,0,-0.4346,-0.4334,-0.4317,-0.4305,-0.4226,-0.418,-0.4169,-0.4127,-0.4117,-0.4108,-0.4069,-0.4042,-0.3956,-0.3958,-0.3946,-0.3942,-0.3857,-0.3857,-0.3858,-0.3901,-0.3905,-0.3908,0,0,0,0,0,0,-0.4398,-0.4325,-0.4306,-0.4273,-0.4233,-0.417,-0.4158,-0.4133,-0.4094,-0.4092,-0.404,-0.4026,-0.3995,-0.3964,-0.3968,-0.3919,-0.3903,-0.3901,-0.394,-0.3944,-0.3947,-0.3955,-0.3931,0,0,0,0,0,-0.4406,-0.4375,-0.4313,-0.4291,-0.4272,-0.4219,-0.4197,-0.4168,-0.4124,-0.4106,-0.4064,-0.4023,-0.3986,-0.3963,-0.3926,-0.3897,-0.3883,-0.3889,-0.3892,-0.3895,-0.3894,-0.3876,-0.3878,-0.3859,-0.3859,-0.3859,0,0,-0.4422,-0.4378,-0.4362,-0.43,-0.4265,-0.4234,-0.4205,-0.4173,-0.4149,-0.4101,-0.4064,-0.4032,-0.3982,-0.395,-0.3933,-0.3923,-0.3896,-0.3895,-0.3898,-0.3895,-0.3876,-0.3878,-0.388,-0.3859,-0.3859,-0.3859,0,0,-0.4435,-0.4399,-0.4376,-0.4342,-0.429,-0.4255,-0.425,-0.419,-0.4167,-0.4129,-0.4092,-0.4063,-0.4002,-0.3967,-0.3942,-0.3942,-0.3916,-0.3931,-0.3948,-0.3931,-0.3933,-0.3934,-0.3934,-0.3934,-0.393,-0.393,-0.393,0,-0.4461,-0.4413,-0.4367,-0.4338,-0.4312,-0.4267,-0.4243,-0.4212,-0.4151,-0.4134,-0.4124,-0.4046,-0.4009,-0.3968,-0.3968,-0.3949,-0.3941,-0.3938,-0.3936,-0.3937,-0.3937,-0.3936,-0.3936,-0.3933,-0.3932,-0.3932,-0.3932,0,-0.4447,-0.4414,-0.4402,-0.4344,-0.4316,-0.429,-0.4241,-0.4218,-0.4191,-0.4157,-0.4119,-0.4073,-0.4026,-0.4014,-0.3987,-0.3969,-0.3964,-0.3946,-0.3929,-0.3942,-0.394,-0.394,-0.3936,-0.3935,-0.3934,-0.3934,0,0,-0.449,-0.4407,-0.4403,-0.4376,-0.4316,-0.429,-0.4261,-0.4215,-0.4197,-0.4156,-0.4131,-0.408,-0.4063,-0.4034,-0.4003,-0.3988,-0.3991,-0.3971,-0.397,-0.3977,-0.3968,-0.3982,-0.3982,-0.3973,-0.3973,-0.3973,-0.3972,0,-0.4494,-0.444,-0.4399,-0.4361,-0.433,-0.4287,-0.4262,-0.4223,-0.419,-0.4159,-0.4122,-0.4087,-0.4067,-0.405,-0.4033,-0.3994,-0.3988,-0.3994,-0.3949,-0.3948,-0.3963,-0.3981,-0.3996,-0.3997,-0.3971,-0.3971,-0.3971,0,-0.4491,-0.4452,-0.4411,-0.4354,-0.4339,-0.4318,-0.4272,-0.4243,-0.4197,-0.4174,-0.4142,-0.411,-0.4078,-0.4064,-0.4019,-0.4024,-0.4003,-0.3981,-0.398,-0.3974,-0.396,-0.3975,-0.3996,-0.3996,-0.3969,-0.3969,-0.3969,0,-0.4526,-0.4463,-0.4431,-0.4409,-0.4341,-0.4327,-0.4298,-0.4252,-0.4227,-0.4187,-0.417,-0.4128,-0.4104,-0.4072,-0.4029,-0.4023,-0.3988,-0.3971,-0.3968,-0.3969,-0.3962,-0.3963,-0.398,-0.3949,-0.3949,-0.3949,-0.3949,0,-0.4535,-0.4511,-0.4446,-0.4426,-0.4398,-0.4351,-0.4325,-0.4292,-0.4251,-0.4224,-0.4184,-0.416,-0.4105,-0.4073,-0.4039,-0.4007,-0.3997,-0.3977,-0.3968,-0.398,-0.3983,-0.3966,-0.3965,-0.3949,-0.3949,-0.3949,-0.3949,0,-0.4569,-0.4524,-0.4486,-0.4425,-0.4409,-0.4391,-0.4339,-0.4318,-0.4283,-0.4249,-0.4238,-0.4184,-0.4145,-0.4099,-0.4045,-0.4022,-0.3992,-0.3979,-0.4008,-0.4003,-0.4003,-0.4003,-0.4009,-0.4007,-0.3979,-0.3979,-0.3979,0,-0.4577,-0.4559,-0.4495,-0.4474,-0.4447,-0.4413,-0.4388,-0.434,-0.4315,-0.4261,-0.4246,-0.4204,-0.4168,-0.4108,-0.4063,-0.4022,-0.4007,-0.4012,-0.4001,-0.4014,-0.4007,-0.4009,-0.4006,-0.4015,-0.4016,-0.4016,-0.4016,0,-0.4597,-0.4576,-0.454,-0.4497,-0.4468,-0.4431,-0.4393,-0.4378,-0.4323,-0.4297,-0.4257,-0.4229,-0.4174,-0.4132,-0.4085,-0.4055,-0.4027,-0.4021,-0.4018,-0.403,-0.4047,-0.4037,-0.4016,-0.402,-0.402,-0.402,-0.402,-0.4019,-0.4618,-0.4599,-0.4552,-0.4514,-0.448,-0.4446,-0.4423,-0.4385,-0.4351,-0.4302,-0.4276,-0.4237,-0.4191,-0.4124,-0.4095,-0.4063,-0.4053,-0.4049,-0.4048,-0.4048,-0.4051,-0.4052,-0.4055,-0.4054,-0.4054,-0.4054,-0.4054,0,-0.4636,-0.4603,-0.4568,-0.4516,-0.4486,-0.4462,-0.4419,-0.4396,-0.4361,-0.4321,-0.4286,-0.424,-0.42,-0.4152,-0.4109,-0.4092,-0.4078,-0.4083,-0.4083,-0.4077,-0.4063,-0.407,-0.4095,-0.4095,-0.4095,-0.4095,-0.4095,-0.4095,-0.4641,-0.4608,-0.4581,-0.453,-0.4498,-0.4459,-0.4436,-0.4404,-0.4371,-0.4321,-0.4288,-0.4257,-0.4214,-0.4167,-0.4129,-0.4116,-0.4102,-0.411,-0.4093,-0.4081,-0.4078,-0.4074,-0.408,-0.4107,-0.4107,-0.4109,-0.4109,-0.4109]},{"header":{"parameterUnit":"m.s-1","parameterCategory":1,"la1":30.2991,"la2":30.254,"lo1":-89.0895,"lo2":-89.0444,"dy":0.0017,"dx":0.0017,"nx":28,"ny":28,"refTime":"2023-09-15T21:00:00:Z","depth":0,"parameterNumber":3,"parameterNumberName":"V-component_of_WINDS"},"data":[0,0,0,0,0,0,0,0,0,0,0,0,0,0,0,0,0,0,0,0,0,0,0,0,0,0,0,0,0,0,0,0,0,0,0,0,0,0,0,0,0,0,0,0,0,0,0,0,0,0,0,0,0,0,0,0,0,0,2.9835,2.9835,0,2.9782,2.9781,2.978,2.9698,2.9697,2.9695,2.9694,2.964,2.964,2.964,0,0,0,0,0,0,0,0,0,0,0,0,0,2.9867,2.9867,2.9836,2.9835,2.9834,2.9782,2.9781,2.978,2.9698,2.9697,2.9695,2.9693,2.964,2.964,2.964,0,0,0,0,0,0,0,0,0,0,0,0,0,2.9838,2.9867,2.9836,2.9787,2.9782,2.9782,2.9781,2.978,2.9699,2.9697,2.9694,2.9692,2.964,2.964,2.964,2.9683,0,0,2.964,2.964,0,0,0,0,0,0,0,0,2.984,2.9837,2.9795,2.979,2.9785,2.9744,2.9772,2.9748,2.9699,2.9731,2.9694,2.9691,2.9677,2.9673,2.9668,2.9681,2.9679,2.964,2.964,2.964,2.964,0,0,0,0,0,0,0,2.9842,2.9839,2.9814,2.9794,2.9788,2.9768,2.9761,2.9767,2.9717,2.9728,2.9721,2.9716,2.9673,2.9669,2.9666,2.9678,2.964,2.964,2.9639,2.9639,2.9722,2.9724,0,0,0,0,0,0,2.9851,2.9841,2.9816,2.9813,2.9807,2.9769,2.9762,2.976,2.9716,2.9708,2.9718,2.9713,2.967,2.9667,2.9664,2.9711,2.964,2.9639,2.9639,2.972,2.9723,2.9725,0,0,0,0,0,0,2.9852,2.9849,2.9818,2.9825,2.9819,2.9771,2.9769,2.976,2.9755,2.9709,2.97,2.9722,2.9668,2.9664,2.9679,2.9708,2.9639,2.9639,2.9717,2.9721,2.9724,2.9807,0,0,0,0,0,0,2.9853,2.985,2.9866,2.9826,2.9819,2.9834,2.9771,2.976,2.9754,2.9747,2.9711,2.9703,2.9666,2.9679,2.9679,2.9707,2.9639,2.9714,2.9719,2.9723,2.9802,2.9813,2.9823,0,0,0,0,0,2.9855,2.9893,2.9868,2.9865,2.9838,2.9836,2.9832,2.9789,2.9757,2.9773,2.9743,2.9704,2.9705,2.9682,2.968,2.9709,2.9712,2.9718,2.9722,2.9797,2.9811,2.9822,0,0,0,0,0,0,2.9938,2.9886,2.9858,2.9884,2.9865,2.9822,2.9841,2.9805,2.9795,2.9788,2.9735,2.9728,2.9749,2.973,2.9705,2.9748,2.9703,2.9708,2.976,2.9772,2.9783,2.9787,2.9639,0,0,0,0,0,2.996,2.9962,2.9916,2.9944,2.9935,2.989,2.9887,2.9855,2.9833,2.9825,2.9797,2.9777,2.9773,2.9772,2.9765,2.9798,2.9789,2.9817,2.9828,2.9837,2.9842,2.9857,2.9868,2.9742,2.9742,2.9742,0,0,3.0004,2.9976,2.9981,2.996,2.9941,2.9944,2.9884,2.989,2.9892,2.9826,2.9838,2.9816,2.9791,2.9815,2.9824,2.98,2.9874,2.9843,2.9851,2.9851,2.9863,2.9875,2.9886,2.9745,2.9745,2.9744,0,0,3.0087,3.0066,3.0086,3.0068,3.004,3.001,3.0015,2.9977,2.996,2.9971,2.9921,2.9922,2.9917,2.99,2.9892,2.9967,2.9929,2.9966,3.0022,3.0037,3.0047,3.0055,3.0082,3.0092,2.9971,2.9972,2.9972,0,3.0146,3.0149,3.0101,3.011,3.0102,3.0042,3.0061,3.0047,3.0019,3.0015,2.9988,2.9979,2.9957,2.9976,2.9994,2.9989,2.9993,2.997,3.0049,3.0057,3.0065,3.0089,3.0099,2.9976,2.9976,2.9975,2.9975,0,3.0222,3.0225,3.0244,3.0218,3.0212,3.0227,3.0181,3.0181,3.0149,3.0121,3.0132,3.0105,3.0091,3.0093,3.0063,3.0107,3.0093,3.0059,3.0012,3.0082,3.0104,3.0113,2.9983,2.9981,2.998,2.9979,0,0,3.0357,3.0303,3.0311,3.0298,3.0262,3.0264,3.0275,3.0261,3.0262,3.0244,3.0252,3.0248,3.0216,3.0206,3.0173,3.0186,3.0246,3.0149,3.0148,3.0168,3.0293,3.0319,3.0331,3.0221,3.0223,3.0224,3.0295,0,3.0433,3.0449,3.0406,3.0433,3.0434,3.0376,3.0386,3.0365,3.0339,3.0337,3.0308,3.0305,3.0263,3.0256,3.0267,3.0237,3.0271,3.0231,3.0228,3.0228,3.0236,3.0342,3.037,3.0438,3.0303,3.0304,3.0305,0,3.0523,3.0509,3.0537,3.0498,3.0497,3.0507,3.049,3.0489,3.0463,3.0443,3.0432,3.0393,3.0401,3.0356,3.0366,3.034,3.0336,3.0321,3.0322,3.0321,3.0271,3.0343,3.0459,3.0469,3.0319,3.0318,3.0317,0,3.0618,3.0607,3.0621,3.0612,3.0568,3.0576,3.0558,3.053,3.0524,3.051,3.0505,3.0492,3.0485,3.0476,3.0434,3.0405,3.0449,3.0401,3.0432,3.0434,3.0445,3.0445,3.0561,3.0442,3.0442,3.0442,3.0442,0,3.0707,3.0726,3.0663,3.0672,3.0691,3.0641,3.0661,3.0638,3.0614,3.0617,3.0566,3.057,3.0515,3.0512,3.048,3.0493,3.049,3.0474,3.0465,3.0478,3.048,3.0475,3.0469,3.0445,3.0444,3.0444,3.0443,0,3.0818,3.0776,3.0788,3.0745,3.0734,3.075,3.0713,3.0719,3.069,3.0694,3.0692,3.0646,3.064,3.0597,3.0583,3.0561,3.0586,3.0568,3.0594,3.0588,3.0622,3.062,3.074,3.0753,3.0626,3.0627,3.0628,0,3.0877,3.089,3.0848,3.0846,3.083,3.0828,3.0822,3.0772,3.0768,3.0739,3.0749,3.0739,3.0729,3.0723,3.0687,3.0675,3.0657,3.0699,3.0655,3.0667,3.0657,3.0657,3.0657,3.0709,3.0711,3.0712,3.0713,0,3.0987,3.0966,3.0958,3.0944,3.0937,3.0923,3.0906,3.0907,3.0853,3.085,3.0843,3.0835,3.0819,3.081,3.0792,3.0773,3.0734,3.0728,3.0734,3.0748,3.0763,3.0755,3.062,3.0725,3.0724,3.0723,3.0723,3.0722,3.1074,3.1082,3.1054,3.1047,3.1028,3.1013,3.1017,3.0987,3.098,3.0963,3.0934,3.0932,3.0905,3.0876,3.086,3.0857,3.0835,3.0845,3.0847,3.085,3.0857,3.0763,3.0854,3.0854,3.0853,3.0853,3.0853,0,3.1181,3.116,3.1154,3.1131,3.1125,3.1088,3.1067,3.1065,3.1063,3.1041,3.1032,3.1024,3.1014,3.0977,3.0964,3.0968,3.095,3.0966,3.0966,3.0962,3.0878,3.0874,3.0981,3.0981,3.0981,3.0981,3.0981,3.0981,3.1237,3.1249,3.1224,3.1226,3.1204,3.1201,3.1192,3.1177,3.1159,3.1152,3.1144,3.112,3.1092,3.1075,3.1065,3.1054,3.1051,3.1074,3.1057,3.098,3.0968,3.0956,3.0951,3.1073,3.1074,3.1141,3.1141,3.1142]}]]